[[{"header":{"parameterUnit":"m.s-1","parameterCategory":1,"la1":30.2991,"la2":30.254,"lo1":-89.0895,"lo2":-89.0444,"dy":0.0017,"dx":0.0017,"nx":28,"ny":28,"refTime":"2024-08-16T09:00:00:Z","depth":0,"parameterNumber":2,"parameterNumberName":"U-component_of_WINDS"},"data":[0,0,0,0,0,0,0,0,0,0,0,0,0,0,0,0,0,0,0,0,0,0,0,0,0,0,0,0,0,0,0,0,0,0,0,0,0,0,0,0,0,0,0,0,0,0,0,0,0,0,0,0,0,0,0,0,0,0,0.6547,0.6548,0,0.6584,0.6584,0.6585,0.6628,0.6629,0.6629,0.663,0.6666,0.6667,0.6667,0,0,0,0,0,0,0,0,0,0,0,0,0,0.6514,0.6514,0.6547,0.6548,0.6548,0.6584,0.6584,0.6585,0.6628,0.6629,0.663,0.663,0.6666,0.6667,0.6667,0,0,0,0,0,0,0,0,0,0,0,0,0,0.6537,0.6514,0.6547,0.6574,0.6577,0.6584,0.6584,0.6585,0.6628,0.6629,0.663,0.6631,0.6666,0.6667,0.6667,0.665,0,0,0.6669,0.6669,0,0,0,0,0,0,0,0,0.6536,0.6538,0.657,0.6572,0.6575,0.6603,0.6586,0.6607,0.6628,0.6608,0.663,0.6631,0.6644,0.6647,0.6651,0.6652,0.6654,0.6669,0.6669,0.6669,0.6669,0,0,0,0,0,0,0,0.6534,0.6537,0.6562,0.657,0.6574,0.6584,0.6588,0.659,0.662,0.661,0.6613,0.6617,0.6646,0.6651,0.6652,0.6654,0.6669,0.6669,0.667,0.667,0.6643,0.6642,0,0,0,0,0,0,0.6529,0.6535,0.6561,0.6563,0.6558,0.6584,0.6589,0.6593,0.662,0.6626,0.6616,0.6619,0.6649,0.6652,0.6654,0.6636,0.6669,0.667,0.667,0.6644,0.6643,0.6642,0,0,0,0,0,0,0.6528,0.653,0.6559,0.655,0.6554,0.6583,0.6587,0.6593,0.6598,0.6625,0.663,0.6616,0.665,0.6653,0.6651,0.6638,0.667,0.667,0.6645,0.6643,0.6642,0.66,0,0,0,0,0,0,0.6527,0.653,0.6524,0.655,0.6555,0.6556,0.6587,0.6593,0.6599,0.6603,0.6626,0.6631,0.6651,0.665,0.6651,0.6639,0.6671,0.6646,0.6644,0.6643,0.6602,0.6597,0.6592,0,0,0,0,0,0.6525,0.651,0.6523,0.6526,0.6548,0.6555,0.6558,0.6582,0.6597,0.6592,0.6609,0.663,0.6639,0.6649,0.6651,0.6639,0.6647,0.6645,0.6643,0.6605,0.6598,0.6592,0,0,0,0,0,0,0.6482,0.6514,0.6529,0.6522,0.6535,0.6562,0.6556,0.6574,0.6583,0.6587,0.6616,0.6621,0.6615,0.6627,0.6638,0.6624,0.6646,0.6644,0.6617,0.661,0.6605,0.6602,0.6671,0,0,0,0,0,0.6472,0.6475,0.6503,0.6494,0.65,0.6526,0.653,0.6548,0.6563,0.6569,0.6586,0.6599,0.6605,0.6609,0.6616,0.6604,0.661,0.6597,0.6592,0.6588,0.6585,0.658,0.6574,0.6634,0.6634,0.6634,0,0,0.645,0.6468,0.6468,0.6486,0.6498,0.65,0.6531,0.6532,0.6534,0.6569,0.6568,0.6581,0.6598,0.6591,0.6589,0.6601,0.657,0.6585,0.6581,0.6581,0.6577,0.6571,0.6566,0.6632,0.6633,0.6633,0,0,0.6412,0.6426,0.642,0.6432,0.6451,0.6469,0.6467,0.6492,0.6502,0.6501,0.6528,0.653,0.654,0.6551,0.6558,0.6524,0.6543,0.6526,0.6499,0.6493,0.6489,0.6485,0.6472,0.6468,0.6523,0.6523,0.6523,0,0.6383,0.6388,0.6415,0.6415,0.6421,0.6453,0.6448,0.6458,0.6477,0.6481,0.6494,0.6507,0.6521,0.6517,0.6509,0.6513,0.6512,0.6523,0.6487,0.6483,0.648,0.6469,0.6464,0.6521,0.6521,0.6521,0.6522,0,0.6351,0.6354,0.6347,0.6366,0.6372,0.6369,0.6395,0.6398,0.6415,0.6431,0.643,0.6448,0.6459,0.6459,0.6476,0.6458,0.6464,0.6482,0.6505,0.6472,0.6461,0.6457,0.6518,0.6518,0.6519,0.652,0,0,0.6287,0.6321,0.6317,0.6326,0.6349,0.6352,0.635,0.6362,0.6363,0.6376,0.6375,0.6382,0.6399,0.6406,0.6425,0.642,0.6392,0.6438,0.6439,0.6428,0.6372,0.6359,0.6353,0.6405,0.6404,0.6404,0.6371,0,0.6253,0.6252,0.6276,0.6268,0.6271,0.6302,0.63,0.6314,0.6329,0.6334,0.6351,0.6356,0.6377,0.6382,0.6379,0.6396,0.6381,0.6399,0.6404,0.6404,0.6398,0.6348,0.6334,0.6302,0.6367,0.6366,0.6366,0,0.6213,0.6224,0.6216,0.624,0.6242,0.624,0.6252,0.6256,0.6273,0.6284,0.6293,0.6313,0.6313,0.6335,0.6334,0.6346,0.635,0.6358,0.6358,0.6359,0.6382,0.6347,0.6292,0.6287,0.636,0.6361,0.6361,0,0.6166,0.6179,0.6176,0.6183,0.621,0.6208,0.6219,0.6237,0.6242,0.6252,0.6256,0.6266,0.6272,0.6279,0.6302,0.6316,0.6299,0.6322,0.6308,0.6307,0.6302,0.6302,0.6246,0.6305,0.6305,0.6305,0.6305,0,0.6125,0.6119,0.6155,0.6153,0.6148,0.6176,0.6169,0.6183,0.6199,0.62,0.6227,0.6227,0.6258,0.6262,0.628,0.6277,0.6279,0.6288,0.6293,0.6285,0.6284,0.6287,0.629,0.6304,0.6304,0.6305,0.6305,0,0.6072,0.6096,0.6095,0.6121,0.6127,0.6122,0.6144,0.6143,0.6161,0.6162,0.6164,0.619,0.6196,0.622,0.6232,0.6244,0.6234,0.6244,0.6229,0.6232,0.6215,0.6216,0.616,0.6154,0.6217,0.6216,0.6215,0,0.6044,0.604,0.6066,0.6069,0.6079,0.6084,0.609,0.6117,0.6121,0.614,0.6137,0.6145,0.6153,0.6161,0.6181,0.619,0.62,0.6179,0.6201,0.6194,0.6199,0.6198,0.6198,0.6174,0.6173,0.6173,0.6172,0,0.5992,0.6004,0.6011,0.6023,0.6029,0.6039,0.605,0.6051,0.6082,0.6085,0.6092,0.6098,0.611,0.6118,0.613,0.6141,0.6161,0.6165,0.6162,0.6154,0.6145,0.6149,0.6215,0.6166,0.6167,0.6167,0.6168,0.6168,0.5951,0.5949,0.5967,0.5974,0.5985,0.5996,0.5996,0.6014,0.602,0.6032,0.6048,0.6052,0.6068,0.6087,0.6097,0.61,0.6112,0.6107,0.6106,0.6105,0.6101,0.6145,0.6103,0.6103,0.6103,0.6103,0.6104,0,0.59,0.5913,0.5919,0.5935,0.594,0.5959,0.5973,0.5976,0.598,0.5994,0.6001,0.6009,0.6016,0.6037,0.6047,0.6045,0.6055,0.6047,0.6047,0.6049,0.609,0.6092,0.6039,0.6039,0.6039,0.6039,0.6039,0.6039,0.5874,0.5872,0.5886,0.5889,0.5903,0.5907,0.5914,0.5923,0.5934,0.5941,0.5948,0.5962,0.5978,0.5989,0.5997,0.6003,0.6005,0.5994,0.6002,0.604,0.6046,0.6052,0.6054,0.5994,0.5994,0.5961,0.5961,0.596]},{"header":{"parameterUnit":"m.s-1","parameterCategory":1,"la1":30.2991,"la2":30.254,"lo1":-89.0895,"lo2":-89.0444,"dy":0.0017,"dx":0.0017,"nx":28,"ny":28,"refTime":"2024-08-16T09:00:00:Z","depth":0,"parameterNumber":3,"parameterNumberName":"V-component_of_WINDS"},"data":[0,0,0,0,0,0,0,0,0,0,0,0,0,0,0,0,0,0,0,0,0,0,0,0,0,0,0,0,0,0,0,0,0,0,0,0,0,0,0,0,0,0,0,0,0,0,0,0,0,0,0,0,0,0,0,0,0,0,-0.5585,-0.5585,0,-0.5545,-0.5544,-0.5544,-0.5512,-0.5512,-0.5512,-0.5512,-0.5469,-0.5469,-0.5468,0,0,0,0,0,0,0,0,0,0,0,0,0,-0.5636,-0.5635,-0.5585,-0.5585,-0.5584,-0.5545,-0.5544,-0.5544,-0.5512,-0.5512,-0.5512,-0.5511,-0.547,-0.5469,-0.5468,0,0,0,0,0,0,0,0,0,0,0,0,0,-0.5607,-0.5635,-0.5586,-0.5564,-0.5562,-0.5545,-0.5544,-0.5544,-0.5513,-0.5512,-0.5512,-0.5511,-0.547,-0.5469,-0.5467,-0.5469,0,0,-0.5464,-0.5463,0,0,0,0,0,0,0,0,-0.5608,-0.5605,-0.5568,-0.5566,-0.5563,-0.5533,-0.5547,-0.5518,-0.5513,-0.5531,-0.5511,-0.5511,-0.5491,-0.5488,-0.5481,-0.5467,-0.5465,-0.5463,-0.5463,-0.5462,-0.5462,0,0,0,0,0,0,0,-0.561,-0.5606,-0.5569,-0.5567,-0.5564,-0.5557,-0.5552,-0.5541,-0.5514,-0.553,-0.5527,-0.5523,-0.5489,-0.5483,-0.548,-0.5464,-0.5464,-0.5462,-0.5462,-0.5461,-0.5449,-0.545,0,0,0,0,0,0,-0.5616,-0.5608,-0.5571,-0.5568,-0.5585,-0.5556,-0.5551,-0.5543,-0.5514,-0.5509,-0.5523,-0.5521,-0.5485,-0.5482,-0.5478,-0.5479,-0.5462,-0.5461,-0.546,-0.5449,-0.545,-0.545,0,0,0,0,0,0,-0.5617,-0.5613,-0.5572,-0.5588,-0.5582,-0.5556,-0.5547,-0.5543,-0.5536,-0.5509,-0.5504,-0.5521,-0.5484,-0.548,-0.5472,-0.5477,-0.546,-0.5459,-0.5448,-0.5449,-0.545,-0.5479,0,0,0,0,0,0,-0.5619,-0.5613,-0.5614,-0.5588,-0.5581,-0.5566,-0.5548,-0.5542,-0.5534,-0.5531,-0.5506,-0.5501,-0.5484,-0.5474,-0.547,-0.5475,-0.5458,-0.5448,-0.5449,-0.545,-0.5477,-0.548,-0.5483,0,0,0,0,0,-0.5621,-0.5623,-0.5614,-0.5609,-0.5581,-0.5566,-0.5563,-0.5542,-0.5534,-0.5534,-0.5517,-0.5502,-0.5477,-0.5473,-0.5469,-0.5473,-0.5447,-0.5449,-0.545,-0.5476,-0.548,-0.5483,0,0,0,0,0,0,-0.5649,-0.5619,-0.5609,-0.5603,-0.5587,-0.5561,-0.5561,-0.5547,-0.5534,-0.5532,-0.5507,-0.5502,-0.5496,-0.5483,-0.548,-0.5473,-0.546,-0.546,-0.5481,-0.5485,-0.5488,-0.5491,-0.5457,0,0,0,0,0,-0.5655,-0.5646,-0.562,-0.5617,-0.561,-0.5587,-0.558,-0.5566,-0.5549,-0.5542,-0.5525,-0.5509,-0.5497,-0.549,-0.5478,-0.5475,-0.547,-0.5476,-0.5479,-0.5481,-0.5482,-0.548,-0.5483,-0.5453,-0.5453,-0.5453,0,0,-0.5667,-0.5649,-0.5645,-0.5623,-0.5609,-0.5601,-0.5582,-0.5573,-0.5567,-0.5541,-0.5532,-0.5519,-0.5499,-0.5494,-0.549,-0.5483,-0.5489,-0.5482,-0.5485,-0.5484,-0.5482,-0.5484,-0.5487,-0.5454,-0.5454,-0.5454,0,0,-0.5684,-0.5669,-0.5666,-0.5653,-0.5633,-0.5618,-0.5617,-0.5593,-0.5583,-0.5574,-0.5555,-0.5547,-0.5527,-0.5514,-0.5505,-0.5519,-0.5505,-0.5515,-0.5531,-0.5529,-0.5532,-0.5534,-0.5539,-0.5541,-0.5516,-0.5516,-0.5516,0,-0.5701,-0.5687,-0.5666,-0.5659,-0.565,-0.5627,-0.5623,-0.5612,-0.5589,-0.5584,-0.5576,-0.5551,-0.5537,-0.5528,-0.5532,-0.5525,-0.5524,-0.5518,-0.5533,-0.5535,-0.5536,-0.5541,-0.5543,-0.5518,-0.5517,-0.5517,-0.5517,0,-0.571,-0.5701,-0.57,-0.568,-0.567,-0.5665,-0.5643,-0.5637,-0.5624,-0.5609,-0.56,-0.5582,-0.5566,-0.5563,-0.555,-0.5553,-0.5549,-0.5538,-0.5524,-0.5541,-0.5545,-0.5547,-0.552,-0.5519,-0.5519,-0.5518,0,0,-0.5744,-0.5712,-0.5712,-0.5703,-0.5679,-0.5672,-0.5666,-0.5651,-0.5646,-0.5631,-0.5626,-0.561,-0.56,-0.559,-0.5575,-0.5574,-0.5587,-0.5562,-0.5561,-0.5568,-0.559,-0.56,-0.5602,-0.5577,-0.5577,-0.5577,-0.5592,0,-0.5758,-0.5746,-0.5727,-0.5721,-0.5713,-0.5691,-0.5686,-0.5672,-0.5658,-0.5649,-0.5634,-0.5624,-0.561,-0.5604,-0.5602,-0.5585,-0.5591,-0.5584,-0.5572,-0.5572,-0.5578,-0.5604,-0.5614,-0.5629,-0.5593,-0.5594,-0.5594,0,-0.5772,-0.576,-0.5754,-0.5732,-0.5728,-0.5723,-0.5709,-0.57,-0.5683,-0.5673,-0.5663,-0.5647,-0.564,-0.5627,-0.5618,-0.5614,-0.5608,-0.5599,-0.5599,-0.5598,-0.5584,-0.5604,-0.5633,-0.5635,-0.5596,-0.5596,-0.5596,0,-0.5799,-0.578,-0.5774,-0.5767,-0.5741,-0.5739,-0.5728,-0.571,-0.5703,-0.569,-0.5685,-0.5671,-0.5663,-0.5653,-0.5634,-0.5627,-0.5627,-0.5613,-0.5619,-0.562,-0.562,-0.5621,-0.5649,-0.5615,-0.5615,-0.5615,-0.5615,0,-0.5817,-0.5814,-0.5786,-0.5782,-0.5779,-0.5757,-0.5754,-0.5741,-0.5726,-0.572,-0.57,-0.5695,-0.5669,-0.5661,-0.5646,-0.5641,-0.5637,-0.563,-0.5626,-0.5632,-0.5633,-0.5628,-0.5627,-0.5616,-0.5616,-0.5616,-0.5616,0,-0.5846,-0.5827,-0.5819,-0.5796,-0.579,-0.5789,-0.5768,-0.5764,-0.575,-0.5742,-0.5739,-0.5716,-0.5706,-0.5685,-0.5669,-0.5659,-0.5657,-0.565,-0.5663,-0.5661,-0.5669,-0.5669,-0.5695,-0.5698,-0.5662,-0.5663,-0.5663,0,-0.5859,-0.5857,-0.5833,-0.5828,-0.5818,-0.5809,-0.5802,-0.578,-0.5773,-0.5754,-0.5753,-0.5741,-0.573,-0.5714,-0.5696,-0.5684,-0.5676,-0.5687,-0.5674,-0.5681,-0.5677,-0.5678,-0.5678,-0.569,-0.569,-0.569,-0.5691,0,-0.5885,-0.5876,-0.5866,-0.5853,-0.5844,-0.5833,-0.582,-0.5817,-0.5793,-0.5786,-0.5775,-0.5767,-0.575,-0.5739,-0.5724,-0.5713,-0.5698,-0.5695,-0.5696,-0.5702,-0.571,-0.5707,-0.5672,-0.5694,-0.5694,-0.5694,-0.5694,-0.5693,-0.5907,-0.5904,-0.5888,-0.5877,-0.5866,-0.5855,-0.585,-0.5835,-0.5826,-0.5811,-0.5799,-0.579,-0.5773,-0.5752,-0.5742,-0.5734,-0.5727,-0.5728,-0.5728,-0.5729,-0.5732,-0.5711,-0.5731,-0.5731,-0.5731,-0.5731,-0.5731,0,-0.5932,-0.5921,-0.5912,-0.5895,-0.5887,-0.5874,-0.586,-0.5854,-0.5846,-0.5832,-0.5822,-0.581,-0.5799,-0.5781,-0.5768,-0.5766,-0.5759,-0.5763,-0.5764,-0.5761,-0.5739,-0.574,-0.5769,-0.5769,-0.5769,-0.5769,-0.5769,-0.5769,-0.5945,-0.594,-0.5929,-0.5918,-0.5906,-0.5897,-0.589,-0.588,-0.5869,-0.5857,-0.5848,-0.5836,-0.582,-0.5807,-0.5796,-0.5791,-0.5787,-0.5794,-0.5787,-0.5766,-0.5763,-0.5759,-0.576,-0.5794,-0.5794,-0.581,-0.5811,-0.5811]}]]